This demonstration page uses our WeatherBlox Daily Observations layout. Learn more.

Left ArrowRight Arrow

Hourly Observations for August 10, 2020

Temp ( °F °C ) Dew Point ( °F °C ) Humidity (%) Winds ( mph kmh ) Pressure ( in mb ) Visibility ( mi km ) Precip ( " mm )
12:51 am 00:51 Clear 83 28.3 40 4.4 22 22 NNW 3 6 29.76 1008 10 16.0934 0 0
1:51 am 01:51 Clear 80 26.7 39 3.9 23 23 WNW 3 6 29.77 1008 10 16.0934 0 0
2:51 am 02:51 Clear 76 24.4 39 3.9 26 26 Calm 29.77 1008 10 16.0934 0 0
3:51 am 03:51 Clear 74 23.3 39 3.9 28 28 E 5 7 29.79 1009 10 16.0934 0 0
4:51 am 04:51 Clear 72 22.2 39 3.9 30 30 E 5 7 29.8 1009 10 16.0934 0 0
5:51 am 05:51 Sunny 71 21.7 39 3.9 31 31 Calm 29.82 1010 10 16.0934 0 0
6:51 am 06:51 Sunny 77 25 41 5 28 28 SE 6 9 29.83 1010 10 16.0934 0 0
7:51 am 07:51 Sunny 83 28.3 42 5.6 24 24 S 5 7 29.85 1011 10 16.0934 0 0
8:51 am 08:51 Sunny 88 31.1 41 5 19 19 WNW 5 7 29.85 1011 10 16.0934 0 0
9:51 am 09:51 Sunny 96 35.6 39 3.9 14 14 WNW 8 13 29.83 1010 10 16.0934 0 0
10:51 am 10:51 Sunny 100 37.8 40 4.4 13 13 WNW 10 17 29.82 1010 10 16.0934 0 0
11:51 am 11:51 Sunny 104 40 38 3.3 10 10 W 15 24 29.79 1009 10 16.0934 0 0
12:51 pm 12:51 Sunny 107 41.7 39 3.9 10 10 WNW 20 31 29.76 1008 10 16.0934 0 0
1:51 pm 13:51 Sunny 107 41.7 39 3.9 10 10 NW 16 26 29.75 1007 10 16.0934 0 0
2:51 pm 14:51 Sunny 107 41.7 38 3.3 9 9 WNW 14 22 29.73 1007 10 16.0934 0 0
3:51 pm 15:51 Sunny 108 42.2 37 2.8 9 9 NNW 15 24 29.71 1006 10 16.0934 0 0
4:51 pm 16:51 Sunny 106 41.1 36 2.2 9 9 WNW 14 22 29.7 1006 10 16.0934 0 0
5:51 pm 17:51 Sunny 104 40 36 2.2 9 9 WNW 17 28 29.7 1006 10 16.0934 0 0
6:51 pm 18:51 Sunny 100 37.8 36 2.2 11 11 WNW 16 26 29.7 1006 10 16.0934 0 0
7:51 pm 19:51 Clear 95 35 37 2.8 13 13 WNW 12 19 29.72 1006 10 16.0934 0 0
8:51 pm 20:51 Clear 93 33.9 38 3.3 14 14 NW 14 22 29.74 1007 10 16.0934 0 0
9:51 pm 21:51 Clear 90 32.2 38 3.3 16 16 NW 13 20 29.75 1007 10 16.0934 0 0
10:51 pm 22:51 Clear 89 31.7 39 3.9 17 17 WNW 13 20 29.75 1007 10 16.0934 0 0
11:51 pm 23:51 Clear 86 30 40 4.4 20 20 NW 8 13 29.75 1008 10 16.0934 0 0

Powered by AerisWeather